Погода в Куре

Погода в Куре : погода сейчас, прогноз погоды и архив. Всё, что Вы хотите узнать о погоде в Куре!

Поиск расширенной информации на нашем сайте:

Другие новости

Новости СМИ2

Главная страница сайта

Новости сайта

02.10.2013

Напоминаем, что на нашем новом сайте вы можете получить высокодетализированные прогнозы погоды по пунктам России, СНГ и мира (включающие важные для авиации метеовеличины, такие как направление и скорость ветра, видимость, явления погоды, количество и форма облачности, нижняя и верхняя граница облачности), а также ознакомиться с разнообразными материалами по авиационной метеорологии и подборкой полезных ссылок на эту тему.

Сайт Метеоцентр.Азия посвящён разработке технологий оптимизации авиаметеорологического обслуживания, включая проектирование и перспективное создание нескольких автоматизированных авиаметеорологических систем:
- система выпуска высокодетальных прогностических карт явлений погоды для нижнего воздушного пространства по России и ближнему зарубежью;
- система верификации прогнозов TAF (выпускаемых синоптиками официальных АМСГ РФ и ближнего зарубежья) и AUTOTAF (выпускаемых сайтом Метеоцентр.Азия) - выявление ошибок, онлайн-сопоставление с фактической погодой METAR, автоматическое внесение коррективов в прогнозы при резком отклонении фактической погоды от прогноза, подсчёт оправдываемости прогнозов по элементам и в целом;
- система обработки, анализа и отображения авиаметеорологической информации для применения провайдерами метеорологической информации.


Погода в Куре - сегодня

Время (UTC), дата Ветер
(°,м/с) 
Видим.   Явления Облачность Т
(°С)
Тd
(°С)
f(%) Тe
(°С)
Pmin
(гПа)
dP
(гПа)
Po
(мм)
O2
(г/м3)
Тmin Tmax R s Состояние
почвы
00 21.01.17 120 (ЮВ) 28  20000 м    1/0 средняя 
[As op]
-26.1   1027.3  1.2  741             
03 21.01.17 290 (З) 20000 м  {снег}  6/0 верхняя 
[Cu med, cong|Cs]
-16.6 -23.5 55 -17  1025.7  -0.7  741  319           
06 21.01.17 230 (ЮЗ) 20000 м    6/5 300 м верхняя 
[Sc|Cc]
-15.5 -22.5 55 -16  1024.5  -0.8  740  318           
09 21.01.17 тихо ()   20000 м    3/0 средняя 
[Ac lent]
-22.5 -25.7 75 -23  1026.3  0.6  741  327    -15.1       
12 21.01.17 тихо ()   20000 м    ясно 
-26.7 -27.9 90 -27  1028.7  1.6  742  333           
15 21.01.17 тихо ()   20000 м    ясно 
-29.5 -31.5 83 -30  1029.1  0.1  742  337           
18 21.01.17 тихо ()   20000 м    ясно 
-31.8 -34.1 80 -32  1028.9  -0.7  741  340           
21 21.01.17 тихо ()   20000 м    ясно 
-33.1 -35.4 80 -33  1028.5  -0.6  741  342  -33      15  равномерный
сухой снег
100% 
00 22.01.17 020 (С) 20000 м    ясно 
-32.7 -34.5 84 -34  1028.6  0.1  741  341  -33.5         
03 22.01.17 050 (СВ) 20000 м    ясно 
-20.6 -23.9 75 -23  1024.8  -1.7  740  324           
06 22.01.17 290 (З) 20000 м    1/0 верхняя 
[Ci fib]
-14.2 -24.9 40 -14  1021.5  -2.1  738  315           
09 22.01.17 тихо ()   20000 м    ясно 
-22.4 -24.9 80 -22  1023.3  0.4  739  326    -14.1       
12 22.01.17 тихо ()   20000 м    ясно 
-27.1 -28.8 85 -27  1024.8  0.7  739  332           
15 22.01.17 тихо ()   20000 м    ясно 
-28.2 -29.4 89 -28  1025.3  0.4  739  334           
18 22.01.17 тихо ()   20000 м    ясно 
-30.5 -32.4 84 -31  1025.8  0.2  740  337           
21 22.01.17 тихо ()   20000 м    ясно 
-31.9 -33.7 84 -32  1025.9  -0.3  739  339  -31.9      14  равномерный
сухой снег
100% 
00 23.01.17 тихо ()   20000 м    ясно 
-32.7 -34.5 84 -33  1026.7  0.6  740  341  -32.7         
03 23.01.17 070 (В) 20000 м    ясно 
-21.5 -25.5 70 -22  1023.3  -1.4  739  325           
06 23.01.17 270 (З) 20000 м    ясно 
-14.7 -21.8 55 -17  1021.5  -0.8  738  316           
09 23.01.17 тихо ()   20000 м    ясно 
-22.7 -25.9 75 -23  1023.6  0.8  739  326    -13.5       
12 23.01.17 тихо ()   20000 м    ясно 
-27.8 -29.7 84 -28  1025.1  0.7  739  333           
15 23.01.17 тихо ()   20000 м    ясно 
-30.6 -33 79 -31  1025.4  -0.2  739  337           
21 23.01.17 050 (СВ) 20000 м    ясно 
-33.2 -36 76 -34  1025.5  -0.4  739  341  -33.1      14  равномерный
сухой снег
100% 
00 24.01.17 тихо ()   20000 м    ясно 
-32.1 -35 75 -32  1026.2  0.9  740  340           
03 24.01.17 070 (В) 20000 м    ясно 
-20.6 -26.4 60 -21  1023.5  -0.9  739  324           
Время (UTC), дата Ветер
(°,м/с) 
Видим.   Явления Облачность Т
(°С)
Тd
(°С)
f(%) Тe
(°С)
Pmin
(гПа)
dP
(гПа)
Po
(мм)
O2
(г/м3)
Тmin Tmax R s Состояние
почвы

Для получения пояснительной информации подведите курсор к названию столбца.

ПОГОДА в Куре - архив

Всё, что Вы хотите узнать о погоде в Куре - удобно и подробно!

Выберите нужную дату (начиная с 1 января 2015* года) и нажмите кнопку "Найти".
Будут отображены архивные сводки погоды по пункту Кур, начиная с указанной даты.


Отображать данные в формате CSV (для использования в таблицах Excel)


Внимание! Наш архив погоды предназначен исключительно для личного некоммерческого использования в познавательных целях. Если Вам необходимы официальные справки о состоянии погоды (для производственных, юридических, коммерческих и т.п. целей), обращайтесь в органы Росгидромета.

*Примечание: данная дата относится к архиву по метеостанциям СССР (Россия, СНГ, Балтия).
Архив по метеостанциям Зарубежной Европы и Азии (кроме Китая) хранится 10 дней, по другим регионам земного шара (Китай, Африка, Америка, Австралия, Океания) - 1 день.

Кур - район местоположения метеостанции


Название, широта, долгота, высота метеостанции:
Кур 49.9°ш. 134.6°д. 283 м над ур. моря [Российская Федерация]

Дополнительная информация

В oтличие oт бoльшинства пoгoдных сайтoв мы публикуем пoдрoбную метеoинфoрмацию в детальнoм прoфессиoнальнoм фoрмате.

Характеристики температуры и влажнoсти вoздуха измеряются на высoте 2 м в тени вдали oт зданий и деревьев.
Скoрoсть ветра измеряется на высoте 10 м (на урoвне рoста челoвека скoрoсть ветра ниже в 1.5-2 раза). Если метеoстанция нахoдится в гoрoде или в лесу, тo скoрoсть ветра занижена на 2-4 м/с пo сравнению с oткрытым местoм. Скoрoсть ветра над акватoриями крупных рек и oзёр, а также на вершинах хoлмoв на 2-5 м/с выше, чем в oбычных услoвиях.
Атмoсфернoе давление в разных тoчках местнoсти мoжет значительнo oтличаться oт давления на метеoстанции, в зависимoсти oт услoвий рельефа (при пoдъёме на 10 м давление пoнижается примернo на 1 мм рт.ст.).